Find Starlink 31592

NORAD ID: 59467 Int'l Des: 2024-068 Owner: SPXS Country: US Constellation: starlink operational
LEOCIRCULAR

現在のビュー

3D地球を読み込み中...

About Starlink 31592

Starlink 31592 (NORAD 59467) is a starlink constellation satellite (v2 mini) launched Apr 10, 2024 by SPXS of US. It operates in LEO, CIRCULAR orbit with a mass of 730.00 kg.

次回通過

Passes for default location (London). Set your location on the main map for personalized predictions.

高度履歴

Loading altitude history...

軌道要素

1 59467U 24068N 26262.65182848 .00002197 00000-0 89344-4 0 9992
2 59467 43.0056 19.3862 0001905 272.3425 87.7209 15.27587523138189
Epoch: Sep 19, 2026 • Age: 24 hours

現在のステータス

高度 482.6 km
遠地点 / 近地点 N/A
速度 7.63 km/s
衛星直下点 8.73°N, 53.97°W
打ち上げ日 Apr 10, 2024
運用期間 2.4 years
タイプ internet

技術仕様

分類 Payload
質量 730.00 kg
乾燥質量 700.00 kg
長さ 0.30 m
スパン 29.00 m
形状 ? Box + pan
製造者 SPXS
バスタイプ Starlink V2M
フェーズステータス In Orbit
所有者/国 SPXS/US

Most Searched